Zurück zum Katalog

STARLINK-33827

AktivKommunikationVLEO
NORAD 63798·PAYLOAD·🇺🇸 United States

Gestartet May 2, 2025 von Cape Canaveral Space Force Station

Loading…

Nächste Überflüge (nächste 24 Stunden)

TLE

AktuellSource: CelesTrak SupGP

Epoche: Sep 15, 2026, 03:10 UTC

1 63798C 25091Z   26258.13243056 -.00024165  00000+0 -87498-3 0  2583
2 63798  43.0035  62.6850 0001763 272.3212 121.5484 15.27599838    16

Verfolge STARLINK-33827 in Echtzeit mit AllMySat

Download on the App Store